Tracking 17694 objects as of 29-May-2016
HD Live streaming from Space Station
objects crossing your sky now

TITAN 3 R/B(2)

Track TITAN 3 R/B(2) now!


NORAD ID: 20669
Int'l Code: 1990-056C
Perigee: 312.6 km
Apogee: 33,123.0 km
Inclination: 24.1 °
Period: 581.9 minutes
Semi major axis: 23088 km
RCS: 6.947 m2 (large)
Launch date: June 23, 1990
Source: United States (US)
Launch site: AIR FORCE EASTERN TEST RANGE (AFETR)

Note: This is a ROCKET BODY
Your satellite tracking list
Your tracking list is empty





NASA's NSSDC Master Catalog

Two Line Element Set (TLE):
1 20669U 90056C   16149.73328655  .00000077  00000-0  33252-3 0  9995
2 20669  24.0645 248.2622 7105249 105.7688 337.1726  2.47456919217887
Source of the keplerian elements: AFSPC

N2YO: 862